| time (UTC) | temp F | wind direction | speed MPH | gust MPH | rain 1hr in | rain 24hr in | rain mn in | humidity % | barometer mb |
| 20260505024539 | 60 | 197 | 1.0 | 9.0 | 0.00 | 0.00 | 0.00 | 65 | 1002.3 |
| 20260505023036 | 59 | 0 | 1.0 | 6.0 | 0.00 | 0.00 | 0.00 | 65 | 1002.3 |
| 20260505021539 | 59 | 158 | 3.0 | 12.0 | 0.00 | 0.00 | 0.00 | 64 | 1002.4 |
| 20260505020038 | 59 | 0 | 0.0 | 1.0 | 0.00 | 0.00 | 0.00 | 56 | 1002.3 |
| 20260505014538 | 59 | 0 | 0.0 | 1.0 | 0.00 | 0.00 | 0.00 | 55 | 1002.2 |
| 20260505013039 | 59 | 0 | 0.0 | 3.0 | 0.00 | 0.00 | 0.00 | 55 | 1002.1 |
| 20260505011541 | 59 | 194 | 0.0 | 3.0 | 0.00 | 0.00 | 0.00 | 55 | 1002.3 |
| 20260505010048 | 60 | 0 | 0.0 | 4.0 | 0.00 | 0.00 | 0.00 | 54 | 1002.2 |
| 20260505004538 | 62 | 0 | 0.0 | 4.0 | 0.00 | 0.00 | 0.00 | 52 | 1002.2 |
| 20260505003038 | 64 | 0 | 0.0 | 3.0 | 0.00 | 0.00 | 0.00 | 48 | 1002.3 |
| 20260505001540 | 66 | 0 | 0.0 | 4.0 | 0.00 | 0.00 | 0.00 | 46 | 1002.2 |
| 20260505000044 | 68 | 255 | 1.0 | 7.0 | 0.00 | 0.00 | 0.00 | 40 | 1002.2 |
| 20260504234536 | 69 | 0 | 1.0 | 7.0 | 0.00 | 0.00 | 0.00 | 39 | 1002.2 |
| 20260504233033 | 70 | 0 | 2.0 | 11.0 | 0.00 | 0.00 | 0.00 | 40 | 1002.2 |
| 20260504231544 | 70 | 197 | 3.0 | 13.0 | 0.00 | 0.00 | 0.00 | 40 | 1002.4 |
| 20260504230050 | 70 | 139 | 6.0 | 16.0 | 0.00 | 0.00 | 0.00 | 41 | 1002.4 |
| 20260504224537 | 70 | 259 | 5.0 | 12.0 | 0.00 | 0.00 | 0.00 | 40 | 1002.5 |
| 20260504223038 | 70 | 222 | 5.0 | 15.0 | 0.00 | 0.00 | 0.00 | 39 | 1002.4 |
| 20260504221540 | 71 | 262 | 5.0 | 14.0 | 0.00 | 0.00 | 0.00 | 36 | 1002.4 |
| 20260504220041 | 71 | 197 | 4.0 | 18.0 | 0.00 | 0.00 | 0.00 | 35 | 1002.3 |
| 20260504214537 | 72 | 128 | 7.0 | 16.0 | 0.00 | 0.00 | 0.00 | 33 | 1002.3 |
| 20260504213038 | 72 | 283 | 8.0 | 21.0 | 0.00 | 0.00 | 0.00 | 34 | 1002.3 |
| 20260504211539 | 71 | 290 | 5.0 | 16.0 | 0.00 | 0.00 | 0.00 | 38 | 1002.3 |
| 20260504210043 | 71 | 191 | 4.0 | 15.0 | 0.00 | 0.00 | 0.00 | 40 | 1002.5 |
| 20260504204547 | 71 | 221 | 6.0 | 15.0 | 0.00 | 0.00 | 0.00 | 40 | 1002.7 |
| 20260504203053 | 72 | 215 | 6.0 | 15.0 | 0.00 | 0.00 | 0.00 | 38 | 1002.8 |
| 20260504201540 | 72 | 177 | 2.0 | 11.0 | 0.00 | 0.00 | 0.00 | 41 | 1002.8 |
| 20260504200038 | 72 | 242 | 2.0 | 12.0 | 0.00 | 0.00 | 0.00 | 41 | 1002.9 |
| 20260504194538 | 71 | 193 | 6.0 | 16.0 | 0.00 | 0.00 | 0.00 | 41 | 1003.1 |
| 20260504193038 | 70 | 244 | 7.0 | 25.0 | 0.00 | 0.00 | 0.00 | 42 | 1003.5 |
| 20260504191542 | 71 | 226 | 7.0 | 15.0 | 0.00 | 0.00 | 0.00 | 43 | 1003.8 |
| 20260504190050 | 70 | 252 | 7.0 | 17.0 | 0.00 | 0.00 | 0.00 | 42 | 1004.0 |
| 20260504184540 | 70 | 254 | 8.0 | 14.0 | 0.00 | 0.00 | 0.00 | 44 | 1004.1 |
| 20260504183039 | 70 | 215 | 6.0 | 15.0 | 0.00 | 0.00 | 0.00 | 44 | 1004.4 |
| 20260504181542 | 70 | 232 | 6.0 | 14.0 | 0.00 | 0.00 | 0.00 | 45 | 1004.5 |
| 20260504180039 | 69 | 166 | 5.0 | 16.0 | 0.00 | 0.00 | 0.00 | 46 | 1004.7 |
| 20260504174536 | 68 | 248 | 8.0 | 17.0 | 0.00 | 0.00 | 0.00 | 47 | 1004.9 |
| 20260504173035 | 66 | 276 | 11.0 | 22.0 | 0.00 | 0.00 | 0.00 | 48 | 1005.0 |
| 20260504171539 | 66 | 253 | 8.0 | 18.0 | 0.00 | 0.00 | 0.00 | 49 | 1005.1 |
| 20260504081542 | 48 | 0 | 1.0 | 5.0 | 0.00 | 0.00 | 0.00 | 65 | 1007.1 |
| 20260504044536 | 51 | 217 | 7.0 | 14.0 | 0.00 | 0.00 | 0.00 | 64 | 1008.6 |
| 20260504043036 | 50 | 245 | 6.0 | 16.0 | 0.00 | 0.00 | 0.00 | 63 | 1008.7 |
| 20260504041538 | 50 | 260 | 5.0 | 17.0 | 0.00 | 0.00 | 0.00 | 63 | 1008.6 |
| 20260504040039 | 50 | 187 | 7.0 | 15.0 | 0.00 | 0.00 | 0.00 | 63 | 1008.6 |
| 20260504034539 | 51 | 232 | 5.0 | 13.0 | 0.00 | 0.00 | 0.00 | 61 | 1008.4 |
| 20260504033040 | 52 | 201 | 7.0 | 13.0 | 0.00 | 0.00 | 0.00 | 59 | 1008.6 |
| 20260504031538 | 53 | 225 | 5.0 | 18.0 | 0.00 | 0.00 | 0.00 | 56 | 1008.7 |
| 20260504030042 | 53 | 193 | 4.0 | 13.0 | 0.00 | 0.00 | 0.00 | 55 | 1008.7 |